Preview of NWS' New Version of Forecast
This preview is not operational and should not be used for support decisions.

Regional Weather Roundup (RWR)

Issued by Binghamton, NY (BGM)

                            
000
ASUS41 KBGM 170610
RWRBGM

REGIONAL WEATHER ROUNDUP
NATIONAL WEATHER SERVICE BINGHAMTON NY
100 AM EST MON DEC 17 2018

Note: "fair" indicates few or no clouds below 12,000 feet with no
significant weather and/or obstructions to visibility.

* = Station(s) that does not report precipitation, such as rain, 
snow, etc, also no thunder or fog.

NYZ009-015>018-022>025-036-037-044>046-055>057-062-170700
...Central New York...
  
CITY           SKY/WX    TMP DP  RH WIND       PRES   REMARKS
Binghamton     FOG       31  31 100 W5        29.79F VSB 1/4 WCI  26  
Cortland       CLOUDY    32  32 100 W3        29.82F FOG              
Dansville      CLOUDY    35  33  92 CALM      29.86F                  
Elmira         CLOUDY    36  33  89 SW5       29.84F WCI  32          
Seneca Falls   CLOUDY    34  34 100 CALM      29.86F FOG              
Ithaca         CLOUDY    34  33  96 NW3       29.84F FOG              
Hamilton       CLOUDY    32  30  93 CALM      29.82F                  
Hornell        CLOUDY    34  34 100 CALM      29.87F FOG              
Monticello     MOCLDY    33  32  96 W6        29.77F WCI  28          
Penn Yan       CLOUDY    35  33  92 CALM      29.84F                  
Rome           CLOUDY    33  33 100 CALM      29.85F FOG              
Sidney         CLOUDY    32  32 100 CALM      29.81F                  
Syracuse       CLOUDY    33  33 100 W8        29.84F FOG     WCI  26  
$$
 
PAZ038>040-043-044-047-048-072-170700
...Northeast Pennsylvania...
  
CITY           SKY/WX    TMP DP  RH WIND       PRES   REMARKS
Hazleton       CLOUDY    34  32  93 NW7       29.82F FOG     WCI  28  
Scranton       CLOUDY    36  34  92 NW6       29.82F WCI  31          
$$
&&
KEY
WCI = Wind Chill Index
VSB = Visibility
HX  = Heat Index
$$